Location: Brantley
(31.5822°N, 86.2569°W)
Time: 07:28:39
(UTC+00:00)

Transit 2A Rocket - Pass Details

Date: 23 February 2026
Orbit: 583 x 900 km, 66.7° (Epoch: 8 March)

Event Time Altitude Azimuth Distance (km) Brightness Sun altitude
Rises 19:49:34 0° 204° (SSW) 3,433 9.2 41.0°
Reaches altitude 10° 19:52:00 10° 205° (SSW) 2,525 8.8 40.6°
Maximum altitude 19:57:57 87° 295° (WNW) 903 6.1 39.9°
Drops below altitude 10° 20:04:00 10° 25° (NNE) 2,569 7.4 39.0°
Sets 20:06:30 0° 25° (NNE) 3,497 8.0 38.7°
